Regional Weather Roundup
Issued by NWS

Home | Current Version | Previous Version | Graphics & Text | Print | Product List | Glossary On
Versions: 1 2 3 4 5 6 7 8 9 10 11 12 13 14 15 16 17 18 19 20 21 22 23 24 25 26 27 28 29 30 31 32 33 34 35 36 37 38 39 40 41 42 43 44 45 46 47 48 49 50
000
ASUS45 KBOU 290207
RWRCO

WEATHER ROUNDUP FOR COLORADO
NATIONAL WEATHER SERVICE DENVER/BOULDER CO
800 PM MDT THU MAY 28 2015

NOTE: "FAIR" INDICATES FEW OR NO CLOUDS BELOW 12000 FEET WITH NO
SIGNIFICANT WEATHER AND/OR OBSTRUCTIONS TO VISIBILITY.

COZ001>005-013-030-031-290300-
...NORTHWEST COLORADO...

CITY           SKY/WX    TMP DP  RH WIND       PRES   REMARKS
CRAIG          CLOUDY    47  41  80 S12       30.20F
HAYDEN         CLOUDY    43  39  87 S8        30.24R
MEEKER         PTCLDY    50  39  66 E8        30.22R
MOUNT WERNER   NOT AVBL
STEAMBOAT SPGS CLOUDY    46  41  84 SE3       30.24R
WALDEN         PTCLDY    41  36  81 CALM      30.22F
$$

COZ006>008-011-290300-
...WEST CENTRAL VALLEYS...

CITY           SKY/WX    TMP DP  RH WIND       PRES   REMARKS
GRAND JUNCTION PTCLDY    61  41  47 SE9       30.09S
MONTROSE       MOCLDY    57  44  62 SE15      30.19S
EAGLE          MOCLDY    64  43  45 SW6       30.21S
RIFLE          PTCLDY    59  39  47 CALM      30.15R
DELTA          MOCLDY    64  40  40 SW7       30.13S
NUCLA          MOCLDY    55  46  71 SE8       30.21R
$$

COZ017>023-064>068-290300-
...SOUTHWEST COLORADO...

CITY           SKY/WX    TMP DP  RH WIND       PRES   REMARKS
DURANGO        PTCLDY    61  36  39 N14       30.14R
CORTEZ         MOCLDY    61  41  47 NE12      30.14R
PAGOSA SPRINGS MOCLDY    61  28  28 NW17G32   30.19R
TELLURIDE      CLOUDY    44  40  86 S9        30.36S
WOLF CREEK PAS NOT AVBL
$$

COZ009-010-012-014-032>034-037-058>063-290300-
...CENTRAL COLORADO...

CITY           SKY/WX    TMP DP  RH WIND       PRES   REMARKS
ASPEN          CLOUDY    47  38  71 SE8       30.25F
BUENA VISTA    MOCLDY    48  36  61 NW18G24   30.22S
COPPER MTN     CLOUDY    34  32  93 CALM      30.38F
BERTHOUD PASS  TSTM      27  19  74 W33G47    30.36S WCI   9
COTTONWOOD PAS MOCLDY    43  34  70 N3        30.29S
GUNNISON       CLOUDY    52  36  54 SW7       30.28R
KREMMLING      MOCLDY    50  34  53 CALM      30.24R
LEADVILLE      CLOUDY    37  36  96 NE5       30.30F
MONARCH PASS   MOCLDY    32  30  93 W30       30.49R WCI  18
SALIDA         MOCLDY    55  35  46 NW8       30.27R
SUNLIGHT       MOCLDY    39  34  81 CALM      30.39R
WILKERSON PASS MOCLDY    36  28  75 N10G18    30.38R
$$

COZ069>075-290300-
...SAN LUIS VALLEY/SANGRE DE CRISTO MOUNTAINS...

CITY           SKY/WX    TMP DP  RH WIND       PRES   REMARKS
ALAMOSA        CLEAR     62  29  28 NW17      30.13R
LA VETA PASS   PTCLDY   N/A N/A N/A MISG      30.29R
SAGUACHE       PTCLDY    52  34  50 NW22      30.21R
$$

COZ035-036-038>040-290300-
...NORTHERN COLORADO FRONT RANGE...

CITY           SKY/WX    TMP DP  RH WIND       PRES   REMARKS
DENVER INTL AP LGT RAIN  59  49  69 E10       30.05R
DMNS CITY PARK   N/A     62  47  57 E18       30.07R
AURORA         TSTM      58  51  79 E6        30.08R
FRONT RANGE AP NOT AVBL
ERIE MUNI ARPT MOCLDY    64  47  53 E7        30.06R
BOULDER MUN AP MOCLDY    63  36  36 SW7       30.06R
CENTENNIAL     MOCLDY    60  43  53 NE5       30.09R THUNDER
BROOMFIELD     MOCLDY    63  37  39 W23G29    30.08R
FORT COLLINS   MOCLDY    63  41  45 CALM      30.04R
LONGMONT       MOCLDY    67  35  30 SW8G17    30.07R
$$

COZ041-046-047-076>085-087-088-290300-
...PIKES PEAK/PALMER DIVIDE AND SOUTHERN FOOTHILLS...

CITY           SKY/WX    TMP DP  RH WIND       PRES   REMARKS
COLO. SPRINGS  MOCLDY    63  44  50 E8        30.07R THUNDER
A. F. ACADEMY  LGT RAIN  63  39  42 NE7       30.08R
ELLICOTT       MOCLDY   N/A N/A N/A E21       30.07R THUNDER
FALCON         MOCLDY    60  41  49 E54G97    30.12R
FORT CARSON    MOCLDY    63  46  54 E6        30.03R
LIMON          CLOUDY    54  49  83 SE9       30.08R
MONUMENT HILL  MOCLDY    54  43  66 W12       30.14R
TRINIDAD       CLEAR     65  46  50 E6        30.03R
$$

COZ042>045-048>051-090-091-290300-
...NORTHEAST COLORADO...

CITY           SKY/WX    TMP DP  RH WIND       PRES   REMARKS
GREELEY ARPT   CLOUDY    63  46  55 N6        30.04R
AKRON          CLOUDY    56  52  86 S6        30.00R
BURLINGTON     CLOUDY    57  50  77 SE8       30.01R
WRAY           CLOUDY    58  52  79 E7        29.97R
STERLING       CLOUDY    55  52  88 CALM      29.98R
HOLYOKE        CLOUDY    61  52  72 SW8       29.96R
FORT MORGAN    TSTM      57  50  76 W16       30.08R
$$

COZ086-089-092>099-290300-
...SOUTHEAST COLORADO...

CITY           SKY/WX    TMP DP  RH WIND       PRES   REMARKS
PUEBLO         PTCLDY    67  49  52 E14       29.96R
LA JUNTA       MOCLDY    62  52  69 SE6       29.97R
LAMAR          CLOUDY    60  49  66 E23G31    29.92F
SPRINGFIELD      N/A     60  48  64 W8        30.02R
$$



USA.gov is the U.S. government's official web portal to all federal, state and local government web resources and services.